Powrót do katalogu

KL-BETA B

AktywnyNaukaPO
NORAD 49060·PAYLOAD·🇩🇪 Germany

Wystrzelony Aug 4, 2021 z Taiyuan Satellite Launch Center

Loading…

Następne Przeloty (najbliższe 24 godziny)

TLE

ŚwieżeSource: Space-Track

Epoka: Sep 14, 2026, 14:54 UTC

1 49060U 21070B   26257.62145941 -.00000088  00000-0 -75948-4 0  9998
2 49060  89.0111 208.8260 0003948 174.2984 185.8237 13.94731160260430

Śledź KL-BETA B w czasie rzeczywistym z AllMySat

Download on the App Store